Regional Weather Roundup
Issued by NWS

Home | Current Version | Previous Version | Text Only | Print | Product List | Glossary On
Versions: 1 2 3 4 5 6 7 8 9 10 11 12 13 14 15 16 17 18 19 20 21 22 23 24 25 26 27 28 29 30 31 32 33 34 35 36 37 38 39 40 41 42 43 44 45 46 47 48 49 50
000
ASUS46 KLOX 030713
RWRCA

SOUTHERN CALIFORNIA WEATHER ROUNDUP
NATIONAL WEATHER SERVICE OXNARD CALIFORNIA
1200 AM PDT THU SEP 03 2015

NOTE: "FAIR" INDICATES FEW OR NO CLOUDS BELOW 12,000 FEET WITH NO
SIGNIFICANT WEATHER AND/OR OBSTRUCTIONS TO VISIBILITY.

  -  STATIONS PRECEEDED BY AN ASTERISK (*) ARE NOT NWS OR FAA
     STATIONS AND ARE NOT SUBJECT TO NWS AND FAA QUALITY CONTROL.

CAZ041-042-087-030800-
LA AND ORANGE COUNTY COASTAL AREAS


CITY           SKY/WX    TMP DP  RH WIND       PRES   REMARKS
L.A. DOWNTOWN  MOCLDY    67  60  78 CALM      29.94R
L.A. AIRPORT   MOCLDY    68  61  77 SW6       29.94S
LONG BEACH     NOT AVBL

CITY           SKY/WX    TMP DP  RH WIND       PRES   REMARKS
AVALON           N/A     63 N/A N/A MISG        N/A
FULLERTON      CLOUDY    70  60  70 CALM      29.93S
*GETTY CENTER    N/A     61  59  94 SW5         N/A
HAWTHORNE      CLOUDY    69  59  70 SW5       29.94S
*LOS ALAMITOS  CLOUDY    68  61  76 NW1       29.94R
*REDONDO BEACH   N/A     67  59  77 CALM      29.95R
SANTA ANA      MOCLDY    67  59  75 SE6       29.94R
STA MONICA APT MOCLDY    68  61  78 SW3       29.94S
*UCLA            N/A     66  59  77 S2        29.92R

$$

CAZ547-548-048-030800-
LA COUNTY VALLEYS AND INLAND EMPIRE


CITY           SKY/WX    TMP DP  RH WIND       PRES   REMARKS
BURBANK        CLOUDY    67  60  78 S5        29.94S
VAN NUYS       MOCLDY    66  59  78 S6        29.94R

CITY           SKY/WX    TMP DP  RH WIND       PRES   REMARKS
CORONA AIRPORT SUNNY     65  59  81 CALM      29.95R
*CHATSWORTH      N/A     65  58  78 CALM      29.93S
CHINO          CLEAR     65  59  81 W6        29.96R
*CLAREMONT       N/A     59  56  89 CALM        N/A
MARCH AFB      CLEAR     64  59  85 NW1       29.96S
*NORTHRIDGE      N/A     64  57  77 CALM        N/A
ONTARIO        PTCLDY    66  58  75 W6        29.95S
*PASADENA        N/A     64  63  94 CALM        N/A
RIVERSIDE      CLEAR     66  59  78 W3        29.95R
SAN BERNARDINO NOT AVBL
*SAN GABRIEL     N/A     68  62  81 S3        30.00S
*WHITEMAN AP   NOT AVBL
*WOODLAND HILL   N/A     63  55  77 W1          N/A

$$

CAZ054-055-030800-
LA AND SAN BERNARDINO COUNTY MOUNTAINS


CITY           SKY/WX    TMP DP  RH WIND       PRES   REMARKS
*ACTON           N/A     63  53  69 E3G15       N/A
*BIG BEAR AIRP PTSUNNY   55  34  44 CALM      30.18R
*BIG PINES       N/A     56  27  33 NE2G14      N/A
SANDBERG       PTCLDY    58  48  69 SW9       30.06S

$$

CAZ028-029-059-060-099-030800-
ANTELOPE VALLEY AND SURROUNDING AREAS


CITY           SKY/WX    TMP DP  RH WIND       PRES   REMARKS
LANCASTER      CLEAR     69  35  28 W20       29.94R
PALMDALE       CLEAR     65  42  43 W14       29.94R
*POPPY PARK      N/A     66  32  28 W8G20       N/A

CITY           SKY/WX    TMP DP  RH WIND       PRES   REMARKS
29 PALMS       PTCLDY    80  40  23 CALM      29.93S
BARSTOW/DAGGET PTCLDY    76  25  15 W16       29.89R
BISHOP         MOCLDY    74  25  16 S12       29.90R
CHINA LAKE     CLEAR     77  38  24 S20       29.85S
EDWARDS AFB    CLEAR     73  26  17 SW12      29.90S
MOJAVE         CLEAR     72  30  21 SW15G21   29.94R
NEEDLES        CLEAR     92  41  17 SW9       29.79S
VICTORVILLE    PTCLDY    70  50  49 CALM      29.96S

$$

CAZ039-040-030800-
VENTURA AND SANTA BARBARA COUNTY COAST


CITY           SKY/WX    TMP DP  RH WIND       PRES   REMARKS
CAMARILLO      CLOUDY    70  59  68 MISG      29.92S
NWS OXNARD       N/A     68  59  74 CALM      29.92S
OXNARD AIRPORT MOCLDY    68  59  73 S3        29.92S
*POINT MUGU    CLOUDY    71  60  68 CALM      29.93S
SBA APT/GOLETA CLEAR     65  56  72 CALM      29.91S
*SANTA BARBARA   N/A     68  56  64 CALM      29.99R
*VENTURA         N/A     65  58  79 CALM      29.53S

$$

CAZ044-045-030800-
VENTURA COUNTY VALLEYS


CITY           SKY/WX    TMP DP  RH WIND       PRES   REMARKS
*SIMI VALLEY     N/A     61  57  87 CALM      29.89S
*OJAI            N/A     62  58  87 CALM      29.87S
*FILLMORE        N/A     62  56  81 CALM      29.84R

$$

CAZ053-030800-
VENTURA COUNTY MOUNTAINS


CITY           SKY/WX    TMP DP  RH WIND       PRES   REMARKS
*LOCKWOOD VLY    N/A     54  28  37 CALM        N/A
*ROSE VALLEY     N/A     46  45  93 MISG        N/A

$$

CAZ034-035-036-030800-
CENTRAL COAST AND SANTA YNEZ VALLEY


CITY           SKY/WX    TMP DP  RH WIND       PRES   REMARKS
SAN LUIS OBISP CLEAR     62  56  80 CALM      29.94R
SANTA MARIA    MOCLDY    62  58  86 CALM      29.95R

CITY           SKY/WX    TMP DP  RH WIND       PRES   REMARKS
*CAL POLY SLO    N/A     59  57  94 NE3G9       N/A
*LOMPOC        CLOUDY    63  54  72 CALM      29.96R
*PISMO BEACH     N/A     61  58  89 CALM      29.94S
*SANTA YNEZ    FAIR      57  54  88 CALM      29.95S

$$

CAZ037-038-051-030800-
SAN LUIS OBISPO COUNTY INTERIOR AND CUYAMA VALLEY


CITY           SKY/WX    TMP DP  RH WIND       PRES   REMARKS
*CUYAMA          N/A     60  53  76 W5        29.86R
PASO ROBLES    CLEAR     63  55  75 W8        29.93S

$$

CAZ032-033-061-030800-
SOUTHERN DESERTS


CITY           SKY/WX    TMP DP  RH WIND       PRES   REMARKS
BLYTHE         MOCLDY    89  54  30 S9        29.77S
IMPERIAL       MOCLDY    89  45  21 E12       29.75R
PALM SPRINGS   MOCLDY    86  44  23 NW14      29.79S
THERMAL        MOCLDY    87  40  19 NW14      29.73S

$$

ELSEWHERE ACROSS THE WESTERN UNITED STATES AND MEXICO


CITY           SKY/WX    TMP DP  RH WIND       PRES   REMARKS
DEATH VALLEY,    N/A     93  33  12 S2          N/A
DENVER, CO     PTCLDY    70  43  37 SW12      30.02F
GRAND CANYON,  CLEAR     51  45  79 CALM      30.24S
HONOLULU, HI   PTCLDY    82  75  78 SE3       29.87R
KAHULUI, MAUI  CLEAR     81  72  74 CALM      29.90R
LAKE TAHOE, CA PTCLDY    58  36  43 S7        30.06F
LAS VEGAS, NV  PTCLDY    87  43  21 S9        29.81S
MAMMOTH LAKES, FAIR      50  34  53 CALM      30.11S
MEXICO CITY, M CLOUDY    61  55  82 N3        30.32F
PHOENIX, AZ    PTCLDY    90  54  29 CALM      29.83S
PORTLAND, OR   MOCLDY    59  49  69 NW3       29.99R
RENO, NV       PTCLDY    68  34  28 VRB5      29.94S
SALT LAKE CITY MOCLDY    82  36  19 SE23G31   29.86S
SAN DIEGO, CA  PTCLDY    69  58  67 CALM      29.96S
SAN FRANCISCO, PTCLDY    62  56  80 W22       29.91S
SAN JOSE, CA   PTCLDY    65  54  67 NE3       29.93S
SEATTLE, WA    PTCLDY    54  49  83 CALM      29.97S
TIJUANA, MEX   CLEAR     63  55  77 W5        29.97F

$$

STATION/POSITION TIME  TEMP    WIND        PRES    VSBY  WAVE
                       AIR SEA DIR/SP/G                  HT/PER
                 (UTC) (F)     (DEG/KT/KT) (MB)    (MI)  (FT/S)
POINT ARGUELLO B NOT AVBL
WEST SANTA BARBA 0650   65 67  330/ 17/ 21 1012.3R         7/11
POINT CONCEPTION NOT AVBL
EAST SANTA BARBA 0700   68 71   CALM  /  2 1013.3R
SANTA MONICA BAY 0650   66 71  180/  6/  8 1013.5S         3/13


USA.gov is the U.S. government's official web portal to all federal, state and local government web resources and services.